Location: Passo di Treia
(43.2833°N, 13.3333°E)
Time: 01:20:17
(UTC+00:00)

Feng Yun 1-1 Rocket - Pass Details

Date: 09 December 2019
Orbit: 830 x 933 km, 99.2° (Epoch: 17 January)

Event Time Altitude Azimuth Distance (km) Brightness Sun altitude
Rises 16:38:53 0° 169° (S) 3,374 7.5 -12.0°
Reaches altitude 10° 16:41:14 10° 171° (S) 2,437 6.7 -12.4°
Maximum altitude 16:46:37 74° 256° (WSW) 866 4.4 -13.3°
Drops below altitude 10° 16:52:01 10° 342° (NNW) 2,449 6.6 -14.2°
Sets 16:54:24 0° 344° (NNW) 3,393 7.3 -14.6°
